Regional Weather Roundup
Issued by NWS

Home | Current Version | Previous Version | Text Only | Print | Product List | Glossary Off
Versions: 1 2 3 4 5 6 7 8 9 10 11 12 13 14 15 16 17 18 19 20 21 22 23 24 25 26 27 28

000
ASUS45 KCYS 280210
RWRWY

WYOMING REGIONAL WEATHER ROUNDUP
NATIONAL WEATHER SERVICE CHEYENNE WY
800 PM MDT SAT MAY 27 2017

NOTE:  "FAIR" INDICATES FEW OR NO CLOUDS BELOW 12,000 FEET
WITH NO SIGNIFICANT WEATHER AND/OR OBSTRUCTIONS TO VISIBILITY.

WYZ001-280300-
YELLOWSTONE NATIONAL PARK

CITY           SKY/WX    TMP DP  RH WIND       PRES   REMARKS
LK YELLOWSTONE   N/A     47  33  58 CALM      30.35R
W YELLOWSTONE  NOT AVBL

$$
WYZ002>013-054>058-071-098>099-280300-
NORTHERN WYOMING

CITY           SKY/WX    TMP DP  RH WIND       PRES   REMARKS
JACKSON        PTCLDY    55  36  47 W6        30.29R
CODY           FAIR      62  32  32 NE6       30.20R
GREYBULL       FAIR      69  30  23 N6        30.12S
WORLAND          N/A     67  36  31 N5        30.14S
SHERIDAN       FAIR      61  43  51 NW6       30.11S
BUFFALO        MOCLDY    61  38  42 W7        30.16R
GILLETTE       FAIR      59  39  47 NW14      30.11R
HULETT         MOCLDY    57  41  54 SE3       30.09F
NEWCASTLE      FAIR      61  32  33 NW9       30.10R

$$
WYZ014>020-022>026-101>103-280300-
CENTRAL WYOMING

CITY           SKY/WX    TMP DP  RH WIND       PRES   REMARKS
BIG PINEY      FAIR      50  29  44 N10       30.31R
PINEDALE       MOCLDY    54  27  35 NW12      30.30R
DUBOIS         FAIR      52  25  35 NW13      30.28R
LANDER         FAIR      56  35  45 S3        30.21R
RIVERTON       FAIR      60  33  36 E3        30.22R
CASPER         FAIR      57  41  55 CALM      30.20R
DOUGLAS        FAIR      56  39  53 W8        30.18R

$$
WYZ021-027>030-104>119-280300-
SOUTHERN WYOMING

CITY           SKY/WX    TMP DP  RH WIND       PRES   REMARKS
EVANSTON       FAIR      53  32  44 NW8       30.31R
KEMMERER         N/A     54  30  40 W12G22    30.31R
FORT BRIDGER   FAIR      58  28  32 NW13      30.32S
ROCK SPRINGS   FAIR      56  25  30 CALM      30.26R
DIXON            N/A     56  26  31 N7        30.29R
RAWLINS        FAIR      53  23  31 N12       30.27R
SARATOGA       FAIR      50  32  50 N12       30.29R
LARAMIE        FAIR      48  28  46 NW13      30.25R
CHEYENNE       FAIR      52  33  48 N16G24    30.22R
TORRINGTON     FAIR      62  34  35 NW9       30.11R
PINE BLUFFS    FAIR      54  37  54 NW8       30.18R

$$




USA.gov is the U.S. government's official web portal to all federal, state and local government web resources and services.